Location: Enborne
(51.3833°N, 1.3667°W)
Time: 15:30:33
(UTC+00:00)

NOSS 2-2 (C) - Pass Details

Date: 20 January 2021
Orbit: 463 x 1745 km, 63.3° (Epoch: 03 March)

Event Time Altitude Azimuth Distance (km) Brightness Sun altitude
Rises 17:51:24 0° 298° (WNW) 2,656 7.5 -11.7°
Reaches altitude 10° 17:53:57 10° 319° (NW) 1,887 6.4 -12.0°
Maximum altitude 17:56:57 19° 5° (N) 1,563 5.4 -12.5°
Enters shadow 17:59:32 13° 41° (NE) 2,011 5.7 -12.9°
